Regional Weather Roundup
Issued by NWS Burlington, VT

Home | Current Version | Previous Version | Graphics & Text | Print | Product List | Glossary On
Versions: 1 2 3 4 5 6 7 8 9 10 11 12 13 14 15 16 17 18 19 20 21 22 23 24 25 26 27 28 29 30 31 32 33 34 35 36 37 38 39 40 41 42 43 44 45 46 47 48 49 50
000
ASUS41 KBTV 041630
RWRBTV
VERMONT REGIONAL WEATHER ROUNDUP
NATIONAL WEATHER SERVICE BURLINGTON VT
1200 PM EDT TUE AUG 04 2015

NOTE: "FAIR" INDICATES FEW OR NO CLOUDS BELOW 12,000 FEET WITH NO
SIGNIFICANT WEATHER AND/OR OBSTRUCTIONS TO VISIBILITY.

* THESE REPORTS ARE NOT UNDER NWS QUALITY CONTROL AND/OR DO NOT
  REPORT WEATHER SUCH AS PRECIPITATION AND FOG.

VTZ001>019-041700-
_____VERMONT_____


CITY           SKY/WX    TMP DP  RH WIND       PRES   REMARKS
BURLINGTON     PTSUNNY   69  59  70 E3        29.82F
MONTPELIER     MOSUNNY   75  59  57 VRB3      29.86F
MORRISVILLE    LGT RAIN  68  60  75 CALM      29.85R
ST. JOHNSBURY*   N/A     76  59  55 MISG      29.79F
LYNDONVILLE*   PTSUNNY   74  58  58 S8        29.83F
MIDDLEBURY*    PTSUNNY   79  60  52 W6        29.82R
SPRINGFIELD    PTSUNNY   79  63  57 S7        29.83F
HIGHGATE*      FAIR      74  61  63 S5        29.80F
NEWPORT*       LGT RAIN  69  58  68 SW12G17   29.83S
BENNINGTON     PTSUNNY   76  64  66 NW7       29.86S
SUTTON*          N/A     72 N/A N/A MISG        N/A
MT. MANSFIELD*   N/A     54 N/A N/A NW18        N/A

_____LAKE CHAMPLAIN_____


CITY           SKY/WX    TMP DP  RH WIND       PRES   REMARKS
COLCHESTER RF*   N/A    N/A N/A N/A S8          N/A
DIAMOND ISL*     N/A     66  59  77 NE8         N/A

$$

NYZ007-026>031-035-052-083-041700-
_____NORTHERN NEW YORK_____


CITY           SKY/WX    TMP DP  RH WIND       PRES   REMARKS
PLATTSBURGH    MOSUNNY   76  61  59 VRB6      29.79F
SARANAC LAKE   CLOUDY    67  58  72 SW7       29.86S
MASSENA        SUNNY     74  56  53 SW10G21   29.82S
OGDENSBURG*    SUNNY     75  57  53 W12       29.83S
POTSDAM*       PTSUNNY   73  59  60 W13       29.83S
WATERTOWN      MOSUNNY   73  59  61 W9        29.86S
FT DRUM        MOSUNNY   74  56  54 SW13G21   29.85F
ALBANY         PTSUNNY   80  66  62 VRB6      29.84F
GLENS FALLS    MOSUNNY   75  66  73 S6        29.82F

$$
NHZ002-005-011-041700-
_____NEW HAMPSHIRE_____


CITY           SKY/WX    TMP DP  RH WIND       PRES   REMARKS
LEBANON        MOSUNNY   79  63  57 VRB6      29.82F
KEENE          MOSUNNY   81  61  50 SW6       29.83F
MT WASHINGTON  PTSUNNY   59  48  67 SW13G22     N/A
PLYMOUTH       PTSUNNY   77  68  74 CALM      29.81F
WHITEFIELD     PTSUNNY   77  58  51 W6        29.83F

$$

_____REGIONAL QUEBEC LOCATIONS_____


CITY           SKY/WX    TMP DP  RH WIND       PRES   REMARKS
MONTREAL       PTSUNNY   75  59  57 SW14G22   29.79S
QUEBEC CITY    PTSUNNY   73  61  64 W12G17    29.77F
SHERBROOKE     LGT RAIN  64  61  88 S6        29.82S

_____REGIONAL ONTARIO LOCATIONS_____


CITY           SKY/WX    TMP DP  RH WIND       PRES   REMARKS
OTTAWA         PTSUNNY   73  54  49 SW16G26   29.81S

______KEY______
VSB  - VISIBILITY IN MILES
WCI  - WIND CHILL INDEX
HX   - HEAT INDEX
$$
NNNN



USA.gov is the U.S. government's official web portal to all federal, state and local government web resources and services.